Weather in San Agustin

Spain     27°46′17″N   15°32′50″W
temp.,
°C
wind,
m/s
gust,
m/s
humid.,
%
clouds,
%
prec.,
mm/h
press.,
hPa
HPBL,
m
27 november, sat
sat2700:00+18nne810627 0.3 1017839
03:00+17n68560 0.0 1017840
06:00+16n686315 0.0 1018683
09:00+18n57600 0.0 1020786
12:00+19nne78559 0.1 10211540
15:00+20nne9105510 0.0 10201554
18:00+19nne9106329 0.1 10211272
21:00+18nne8106354 0.1 10221061
28 november, sun
sun2800:00+18n68632 0.1 1023813
03:00+18n57672 0.0 1022643
06:00+18n46688 0.1 1022691
09:00+19n58687 0.1 1024986
12:00+19nne8106593 0.4 10241334
15:00+19ne10116128 0.1 10231389
18:00+18nne9116127 0.1 10241298
21:00+17nne9116626 0.0 10261014
29 november, mon
mon2900:00+18nne9116321 0.1 1026886
03:00+17nne9117129 0.1 1025937
06:00+17nne9117423 0.1 1024888
09:00+17nne8116825 0.1 10261175
12:00+19ne9115729 0.1 10261441
15:00+19nne9115821 0.0 10231325
18:00+18ne9116225 0.0 10231271
21:00+18nne912668 0.0 10241002
30 november, tue
tue3000:00+17ne911694 0.0 1024840
03:00+17ne810703 0.0 1024750
06:00+17ne79734 0.0 1023731
09:00+19ne79665 0.0 10241122
12:00+19ene786313 0.1 10251220
15:00+20ene56583 0.0 10221091
18:00+19ne55622 0.0 1022829
21:00+18nne56722 0.0 1023583
1 december, wed
wed100:00+18ne55773 0.0 1022474
03:00+17nne34792 0.1 1022357
06:00+17nne33793 0.1 1021319
09:00+17ne33764 0.0 1022438
12:00+19e336818 0.0 1022903
15:00+19e337032 0.4 1020710
18:00+18ene447059 0.7 1021682
21:00+18ne56710 0.0 1022507